Time,TemperatureF,DewpointF,PressureIn,WindDirection,WindDirectionDegrees,WindSpeedMPH,WindSpeedGustMPH,Humidity,HourlyPrecipIn,Conditions,Clouds,dailyrainin,SoftwareType,DateUTC
2013-05-01 00:01:00,65.6,56.0,30.00,South,170,4.0,4.0,71,0.00,,---,0.00,VWS V14.01,2013-05-01 04:01:00,
2013-05-01 00:02:00,65.6,56.0,30.00,South,170,4.0,4.0,71,0.00,,---,0.00,VWS V14.01,2013-05-01 04:02:00,
2013-05-01 00:03:00,65.4,56.2,30.00,South,170,4.0,4.0,72,0.00,,---,0.00,VWS V14.01,2013-05-01 04:03:00,
2013-05-01 00:04:00,65.4,56.2,30.00,South,170,4.0,4.0,72,0.00,,---,0.00,VWS V14.01,2013-05-01 04:04:00,
2013-05-01 00:10:00,65.2,56.0,30.00,South,170,5.3,5.3,72,0.00,,---,0.00,VWS V14.01,2013-05-01 04:10:00,
2013-05-01 00:12:00,65.2,55.6,30.00,South,170,5.3,5.3,71,0.00,,---,0.00,VWS V14.01,2013-05-01 04:12:00,
2013-05-01 00:17:00,65.2,56.0,30.00,South,170,5.3,5.3,72,0.00,,---,0.00,VWS V14.01,2013-05-01 04:17:00,
2013-05-01 00:22:00,65.1,55.8,30.00,SW,215,4.3,4.3,72,0.00,,---,0.00,VWS V14.01,2013-05-01 04:22:00,
2013-05-01 00:27:00,64.9,55.7,30.00,South,170,1.3,1.7,72,0.00,,---,0.00,VWS V14.01,2013-05-01 04:27:00,
2013-05-01 00:32:00,64.9,55.7,30.00,South,170,1.3,1.3,72,0.00,,---,0.00,VWS V14.01,2013-05-01 04:32:00,
2013-05-01 00:37:00,64.5,55.3,30.00,South,170,0.0,0.0,72,0.00,,---,0.00,VWS V14.01,2013-05-01 04:37:00,
2013-05-01 00:42:00,64.9,55.7,30.00,South,170,0.0,0.0,72,0.00,,---,0.00,VWS V14.01,2013-05-01 04:42:00,
2013-05-01 00:47:00,64.7,55.5,30.00,South,170,0.0,0.0,72,0.00,,---,0.00,VWS V14.01,2013-05-01 04:47:00,
2013-05-01 00:52:00,64.5,55.3,30.00,South,170,0.0,0.0,72,0.00,,---,0.00,VWS V14.01,2013-05-01 04:52:00,
2013-05-01 00:57:00,64.5,55.3,30.00,South,170,5.0,5.0,72,0.00,,---,0.00,VWS V14.01,2013-05-01 04:57:00,
2013-05-01 01:02:00,64.3,55.1,30.00,South,170,5.0,5.0,72,0.00,,---,0.00,VWS V14.01,2013-05-01 05:02:00,
2013-05-01 01:07:00,64.2,54.6,30.00,South,170,5.0,5.0,71,0.00,,---,0.00,VWS V14.01,2013-05-01 05:07:00,
2013-05-01 01:13:00,64.5,55.3,30.00,South,170,5.0,5.0,72,0.00,,---,0.00,VWS V14.01,2013-05-01 05:13:00,
2013-05-01 01:18:00,64.3,54.8,30.00,South,170,2.3,2.3,71,0.00,,---,0.00,VWS V14.01,2013-05-01 05:18:00,
2013-05-01 01:23:00,64.2,54.6,30.00,South,170,3.0,3.0,71,0.00,,---,0.00,VWS V14.01,2013-05-01 05:23:00,
2013-05-01 01:28:00,64.2,54.6,30.00,SW,215,5.0,5.0,71,0.00,,---,0.00,VWS V14.01,2013-05-01 05:28:00,
2013-05-01 01:33:00,63.8,54.2,30.00,SE,125,0.0,0.0,71,0.00,,---,0.00,VWS V14.01,2013-05-01 05:33:00,
2013-05-01 01:38:00,64.0,54.4,30.00,South,170,0.0,0.0,71,0.00,,---,0.00,VWS V14.01,2013-05-01 05:38:00,
2013-05-01 01:43:00,63.6,54.1,30.00,SW,215,2.3,2.3,71,0.00,,---,0.00,VWS V14.01,2013-05-01 05:43:00,
2013-05-01 01:48:00,63.6,54.1,30.00,SW,215,2.3,2.3,71,0.00,,---,0.00,VWS V14.01,2013-05-01 05:48:00,
2013-05-01 01:53:00,63.1,53.5,30.00,South,170,1.7,4.6,71,0.00,,---,0.00,VWS V14.01,2013-05-01 05:53:00,
2013-05-01 01:58:00,62.9,53.4,30.00,South,170,3.6,3.6,71,0.00,,---,0.00,VWS V14.01,2013-05-01 05:58:00,
2013-05-01 02:03:00,62.7,53.2,30.00,SW,215,2.0,2.0,71,0.00,,---,0.00,VWS V14.01,2013-05-01 06:03:00,
2013-05-01 02:08:00,62.7,53.2,30.00,South,170,3.3,3.3,71,0.00,,---,0.00,VWS V14.01,2013-05-01 06:08:00,
2013-05-01 02:13:00,62.7,53.2,30.03,South,170,3.0,3.0,71,0.00,,---,0.00,VWS V14.01,2013-05-01 06:13:00,
2013-05-01 02:18:00,62.5,53.0,30.03,South,170,3.0,3.0,71,0.00,,---,0.00,VWS V14.01,2013-05-01 06:18:00,
2013-05-01 02:23:00,62.4,52.8,30.03,South,170,4.0,4.0,71,0.00,,---,0.00,VWS V14.01,2013-05-01 06:23:00,
2013-05-01 02:28:00,62.4,52.8,30.03,SE,125,4.3,4.3,71,0.00,,---,0.00,VWS V14.01,2013-05-01 06:28:00,
2013-05-01 02:33:00,62.2,52.7,30.03,SE,125,5.3,5.3,71,0.00,,---,0.00,VWS V14.01,2013-05-01 06:33:00,
2013-05-01 02:38:00,61.8,52.7,30.03,South,170,0.0,0.0,72,0.00,,---,0.00,VWS V14.01,2013-05-01 06:38:00,
2013-05-01 02:43:00,61.6,52.5,30.03,SE,125,3.6,3.6,72,0.00,,---,0.00,VWS V14.01,2013-05-01 06:43:00,
2013-05-01 02:48:00,61.6,52.2,30.03,South,170,4.0,7.3,71,0.00,,---,0.00,VWS V14.01,2013-05-01 06:48:00,
2013-05-01 02:53:00,61.6,52.2,30.03,SE,125,1.7,4.0,71,0.00,,---,0.00,VWS V14.01,2013-05-01 06:53:00,
2013-05-01 02:58:00,61.8,52.3,30.03,SE,125,8.6,8.6,71,0.00,,---,0.00,VWS V14.01,2013-05-01 06:58:00,
2013-05-01 03:03:00,61.6,52.2,30.03,South,170,4.3,4.3,71,0.00,,---,0.00,VWS V14.01,2013-05-01 07:03:00,
2013-05-01 03:08:00,61.5,52.0,30.03,South,170,12.9,12.9,71,0.00,,---,0.00,VWS V14.01,2013-05-01 07:08:00,
2013-05-01 03:13:00,61.3,51.8,30.03,South,170,12.9,12.9,71,0.00,,---,0.00,VWS V14.01,2013-05-01 07:13:00,
2013-05-01 03:18:00,61.3,51.8,30.03,South,170,12.9,12.9,71,0.00,,---,0.00,VWS V14.01,2013-05-01 07:18:00,
2013-05-01 03:23:00,61.3,51.8,30.03,South,170,12.9,12.9,71,0.00,,---,0.00,VWS V14.01,2013-05-01 07:23:00,
2013-05-01 03:28:00,61.1,51.6,30.03,South,170,2.3,2.3,71,0.00,,---,0.00,VWS V14.01,2013-05-01 07:28:00,
2013-05-01 03:33:00,61.1,51.6,30.03,South,170,3.0,8.3,71,0.00,,---,0.00,VWS V14.01,2013-05-01 07:33:00,
2013-05-01 03:38:00,61.1,51.6,30.03,South,170,2.0,2.0,71,0.00,,---,0.00,VWS V14.01,2013-05-01 07:38:00,
2013-05-01 03:44:00,61.1,51.6,30.03,South,170,2.3,2.3,71,0.00,,---,0.00,VWS V14.01,2013-05-01 07:44:00,
2013-05-01 03:49:00,60.7,51.3,30.03,South,170,2.0,2.0,71,0.00,,---,0.00,VWS V14.01,2013-05-01 07:49:00,
2013-05-01 03:54:00,60.6,51.1,30.03,South,170,2.0,2.0,71,0.00,,---,0.00,VWS V14.01,2013-05-01 07:54:00,
2013-05-01 03:59:00,60.6,51.1,30.03,South,170,0.0,2.0,71,0.00,,---,0.00,VWS V14.01,2013-05-01 07:59:00,
2013-05-01 04:04:00,60.4,51.0,30.03,SW,215,1.3,1.3,71,0.00,,---,0.00,VWS V14.01,2013-05-01 08:04:00,
2013-05-01 04:09:00,60.2,50.8,30.03,South,170,2.3,4.3,71,0.00,,---,0.00,VWS V14.01,2013-05-01 08:09:00,
2013-05-01 04:14:00,60.0,50.6,30.03,SE,125,2.3,2.3,71,0.00,,---,0.00,VWS V14.01,2013-05-01 08:14:00,
2013-05-01 04:19:00,59.8,50.4,30.03,SW,215,2.0,3.3,71,0.00,,---,0.00,VWS V14.01,2013-05-01 08:19:00,
2013-05-01 04:24:00,59.5,50.5,30.03,SE,125,0.0,3.6,72,0.00,,---,0.00,VWS V14.01,2013-05-01 08:24:00,
2013-05-01 04:29:00,59.7,50.6,30.03,South,170,2.3,2.3,72,0.00,,---,0.00,VWS V14.01,2013-05-01 08:29:00,
2013-05-01 04:34:00,59.5,50.5,30.06,South,170,3.6,3.6,72,0.00,,---,0.00,VWS V14.01,2013-05-01 08:34:00,
2013-05-01 04:39:00,58.9,49.9,30.06,South,170,1.3,4.3,72,0.00,,---,0.00,VWS V14.01,2013-05-01 08:39:00,
2013-05-01 04:44:00,58.9,49.9,30.06,SE,125,1.7,1.7,72,0.00,,---,0.00,VWS V14.01,2013-05-01 08:44:00,
2013-05-01 04:49:00,58.8,50.1,30.06,South,170,2.3,2.3,73,0.00,,---,0.00,VWS V14.01,2013-05-01 08:49:00,
2013-05-01 04:54:00,58.4,49.8,30.06,SW,215,2.0,2.0,73,0.00,,---,0.00,VWS V14.01,2013-05-01 08:54:00,
2013-05-01 04:59:00,58.2,50.0,30.06,SE,125,2.3,2.3,74,0.00,,---,0.00,VWS V14.01,2013-05-01 08:59:00,
2013-05-01 05:04:00,58.0,49.4,30.06,South,170,2.3,2.3,73,0.00,,---,0.00,VWS V14.01,2013-05-01 09:04:00,
2013-05-01 05:09:00,57.9,49.6,30.06,South,170,0.0,0.0,74,0.00,,---,0.00,VWS V14.01,2013-05-01 09:09:00,
2013-05-01 05:14:00,57.5,49.3,30.06,South,170,3.0,3.0,74,0.00,,---,0.00,VWS V14.01,2013-05-01 09:14:00,
2013-05-01 05:19:00,57.1,49.3,30.06,South,170,3.0,3.0,75,0.00,,---,0.00,VWS V14.01,2013-05-01 09:19:00,
2013-05-01 05:24:00,57.0,49.1,30.06,South,170,3.0,3.0,75,0.00,,---,0.00,VWS V14.01,2013-05-01 09:24:00,
2013-05-01 05:29:00,56.8,49.0,30.06,South,170,3.0,3.0,75,0.00,,---,0.00,VWS V14.01,2013-05-01 09:29:00,
2013-05-01 05:34:00,57.0,49.1,30.06,South,170,3.0,3.0,75,0.00,,---,0.00,VWS V14.01,2013-05-01 09:34:00,
2013-05-01 05:39:00,57.0,49.1,30.06,South,170,3.0,3.0,75,0.00,,---,0.42,VWS V14.01,2013-05-01 09:39:00,
2013-05-01 05:44:00,57.0,49.5,30.06,South,170,3.0,3.0,76,0.00,,---,0.00,VWS V14.01,2013-05-01 09:44:00,
2013-05-01 05:49:00,57.0,49.1,30.06,South,170,3.0,3.0,75,0.00,,---,0.00,VWS V14.01,2013-05-01 09:49:00,
2013-05-01 05:54:00,57.0,49.5,30.06,South,170,3.0,3.0,76,0.00,,---,0.00,VWS V14.01,2013-05-01 09:54:00,
2013-05-01 05:59:00,57.0,49.5,30.06,South,170,3.0,3.0,76,0.00,,---,0.00,VWS V14.01,2013-05-01 09:59:00,
2013-05-01 06:04:00,57.0,49.8,30.06,South,170,3.0,3.0,77,0.00,,---,0.00,VWS V14.01,2013-05-01 10:04:00,
2013-05-01 06:09:00,56.6,49.1,30.06,South,170,3.0,3.0,76,0.00,,---,0.00,VWS V14.01,2013-05-01 10:09:00,
2013-05-01 06:15:00,56.6,49.1,30.06,South,170,3.0,3.0,76,0.00,,---,0.00,VWS V14.01,2013-05-01 10:15:00,
2013-05-01 06:20:00,56.6,49.1,30.06,South,170,3.0,3.0,76,0.00,,---,0.00,VWS V14.01,2013-05-01 10:20:00,
2013-05-01 06:25:00,56.6,49.1,30.06,South,170,3.0,3.0,76,0.00,,---,0.00,VWS V14.01,2013-05-01 10:25:00,
2013-05-01 06:30:00,56.4,49.3,30.06,South,170,3.0,3.0,77,0.00,,---,0.00,VWS V14.01,2013-05-01 10:30:00,
2013-05-01 06:35:00,56.4,49.3,30.09,South,170,3.0,3.0,77,0.00,,---,0.00,VWS V14.01,2013-05-01 10:35:00,
2013-05-01 06:40:00,56.2,49.1,30.09,South,170,3.0,3.0,77,0.00,,---,0.00,VWS V14.01,2013-05-01 10:40:00,
2013-05-01 06:45:00,56.2,49.1,30.09,South,170,3.0,3.0,77,0.00,,---,0.00,VWS V14.01,2013-05-01 10:45:00,
2013-05-01 06:50:00,56.4,49.7,30.09,South,170,3.0,3.0,78,0.00,,---,0.00,VWS V14.01,2013-05-01 10:50:00,
2013-05-01 06:55:00,56.4,49.7,30.09,South,170,0.0,0.0,78,0.00,,---,0.00,VWS V14.01,2013-05-01 10:55:00,
2013-05-01 07:00:00,56.4,49.7,30.09,SE,125,4.0,4.0,78,0.00,,---,0.00,VWS V14.01,2013-05-01 11:00:00,
2013-05-01 07:05:00,56.4,49.3,30.09,South,170,3.0,3.0,77,0.00,,---,0.00,VWS V14.01,2013-05-01 11:05:00,
2013-05-01 07:10:00,56.6,49.5,30.09,South,170,3.0,3.0,77,0.00,,---,0.00,VWS V14.01,2013-05-01 11:10:00,
2013-05-01 07:15:00,56.8,49.7,30.09,South,170,3.0,3.0,77,0.00,,---,0.00,VWS V14.01,2013-05-01 11:15:00,
2013-05-01 07:20:00,57.3,49.8,30.09,South,170,3.0,3.0,76,0.00,,---,0.00,VWS V14.01,2013-05-01 11:20:00,
2013-05-01 07:25:00,57.9,50.0,30.09,South,170,3.0,3.0,75,0.00,,---,0.00,VWS V14.01,2013-05-01 11:25:00,
2013-05-01 07:30:00,58.0,49.8,30.09,South,170,3.0,3.0,74,0.00,,---,0.00,VWS V14.01,2013-05-01 11:30:00,
2013-05-01 07:35:00,58.4,50.5,30.09,South,170,3.0,3.0,75,0.00,,---,0.00,VWS V14.01,2013-05-01 11:35:00,
2013-05-01 07:40:00,58.6,50.7,30.09,South,170,3.0,3.0,75,0.00,,---,0.00,VWS V14.01,2013-05-01 11:40:00,
2013-05-01 07:45:00,58.6,50.7,30.09,South,170,3.0,3.0,75,0.00,,---,0.00,VWS V14.01,2013-05-01 11:45:00,
2013-05-01 07:50:00,59.1,51.2,30.09,South,170,3.0,3.0,75,0.00,,---,0.00,VWS V14.01,2013-05-01 11:50:00,
2013-05-01 07:55:00,59.5,51.2,30.09,South,170,3.0,3.0,74,0.00,,---,0.00,VWS V14.01,2013-05-01 11:55:00,
2013-05-01 08:00:00,59.8,51.5,30.09,South,170,3.0,3.0,74,0.00,,---,0.00,VWS V14.01,2013-05-01 12:00:00,
2013-05-01 08:05:00,60.0,51.7,30.09,South,170,3.0,3.0,74,0.00,,---,0.00,VWS V14.01,2013-05-01 12:05:00,
2013-05-01 08:10:00,60.6,51.9,30.09,South,170,3.0,3.0,73,0.00,,---,0.00,VWS V14.01,2013-05-01 12:10:00,
2013-05-01 08:15:00,61.1,52.0,30.09,South,170,3.0,3.0,72,0.00,,---,0.00,VWS V14.01,2013-05-01 12:15:00,
2013-05-01 08:20:00,61.3,52.2,30.09,South,170,3.0,3.0,72,0.00,,---,0.00,VWS V14.01,2013-05-01 12:20:00,
2013-05-01 08:25:00,61.6,52.5,30.09,South,170,3.0,3.0,72,0.00,,---,0.00,VWS V14.01,2013-05-01 12:25:00,
2013-05-01 08:30:00,62.2,52.7,30.09,South,170,3.0,3.0,71,0.00,,---,0.00,VWS V14.01,2013-05-01 12:30:00,
2013-05-01 08:36:00,62.5,53.0,30.12,South,170,3.0,3.0,71,0.00,,---,0.00,VWS V14.01,2013-05-01 12:36:00,
2013-05-01 08:41:00,63.1,53.2,30.12,South,170,3.0,3.0,70,0.00,,---,0.00,VWS V14.01,2013-05-01 12:41:00,
2013-05-01 08:46:00,63.6,53.3,30.12,South,170,3.0,3.0,69,0.00,,---,0.00,VWS V14.01,2013-05-01 12:46:00,
2013-05-01 08:51:00,63.6,53.3,30.12,South,170,3.0,3.0,69,0.00,,---,0.00,VWS V14.01,2013-05-01 12:51:00,
2013-05-01 08:56:00,64.2,53.4,30.12,South,170,3.0,3.0,68,0.00,,---,0.00,VWS V14.01,2013-05-01 12:56:00,
2013-05-01 09:01:00,64.7,53.5,30.12,South,170,3.0,3.0,67,0.00,,---,0.00,VWS V14.01,2013-05-01 13:01:00,
2013-05-01 09:06:00,65.1,52.6,30.12,South,170,3.0,3.0,64,0.00,,---,0.00,VWS V14.01,2013-05-01 13:06:00,
2013-05-01 09:11:00,65.6,53.5,30.12,SW,215,4.0,4.0,65,0.00,,---,0.00,VWS V14.01,2013-05-01 13:11:00,
2013-05-01 09:16:00,65.8,53.3,30.12,SW,215,4.0,4.0,64,0.00,,---,0.00,VWS V14.01,2013-05-01 13:16:00,
2013-05-01 09:21:00,66.1,53.6,30.12,SW,215,4.0,4.0,64,0.00,,---,0.00,VWS V14.01,2013-05-01 13:21:00,
2013-05-01 09:26:00,66.5,53.5,30.12,SW,215,4.0,4.0,63,0.00,,---,0.00,VWS V14.01,2013-05-01 13:26:00,
2013-05-01 09:31:00,67.0,54.5,30.12,SW,215,4.0,4.0,64,0.00,,---,0.00,VWS V14.01,2013-05-01 13:31:00,
2013-05-01 09:36:00,67.6,53.2,30.12,SW,215,4.0,4.0,60,0.00,,---,0.00,VWS V14.01,2013-05-01 13:36:00,
2013-05-01 09:41:00,68.1,52.8,30.12,SW,215,4.0,4.0,58,0.00,,---,0.00,VWS V14.01,2013-05-01 13:41:00,
2013-05-01 09:46:00,68.7,53.8,30.12,SW,215,4.0,4.0,59,0.00,,---,0.00,VWS V14.01,2013-05-01 13:46:00,
2013-05-01 09:51:00,69.2,54.7,30.12,SE,125,1.3,4.0,60,0.00,,---,0.00,VWS V14.01,2013-05-01 13:51:00,
2013-05-01 09:56:00,69.4,54.5,30.12,SE,125,1.3,1.3,59,0.00,,---,0.00,VWS V14.01,2013-05-01 13:56:00,
2013-05-01 10:01:00,70.1,55.6,30.12,SE,125,1.3,1.3,60,0.00,,---,0.00,VWS V14.01,2013-05-01 14:01:00,
2013-05-01 10:06:00,70.1,54.7,30.12,SE,125,1.3,1.3,58,0.00,,---,0.00,VWS V14.01,2013-05-01 14:06:00,
2013-05-01 10:11:00,70.8,54.8,30.12,SE,125,1.3,1.3,57,0.00,,---,0.00,VWS V14.01,2013-05-01 14:11:00,
2013-05-01 10:16:00,71.2,53.2,30.12,SE,125,1.3,1.3,53,0.00,,---,0.00,VWS V14.01,2013-05-01 14:16:00,
2013-05-01 10:21:00,71.4,53.9,30.12,SE,125,1.3,1.3,54,0.00,,---,0.00,VWS V14.01,2013-05-01 14:21:00,
2013-05-01 10:26:00,71.7,53.7,30.12,SE,125,1.3,1.3,53,0.00,,---,0.00,VWS V14.01,2013-05-01 14:26:00,
2013-05-01 10:31:00,71.9,53.9,30.12,SE,125,1.3,1.3,53,0.00,,---,0.00,VWS V14.01,2013-05-01 14:31:00,
2013-05-01 10:36:00,72.6,54.5,30.12,SE,125,1.3,1.3,53,0.00,,---,0.00,VWS V14.01,2013-05-01 14:36:00,
2013-05-01 10:41:00,73.0,55.4,30.12,SE,125,1.3,1.3,54,0.00,,---,0.00,VWS V14.01,2013-05-01 14:41:00,
2013-05-01 10:46:00,73.5,54.8,30.12,South,170,3.6,3.6,52,0.00,,---,0.00,VWS V14.01,2013-05-01 14:46:00,
2013-05-01 10:51:00,73.9,55.2,30.12,South,170,3.6,3.6,52,0.00,,---,0.00,VWS V14.01,2013-05-01 14:51:00,
2013-05-01 10:57:00,74.6,55.3,30.12,South,170,3.6,3.6,51,0.00,,---,0.00,VWS V14.01,2013-05-01 14:57:00,
2013-05-01 11:02:00,75.1,55.8,30.12,SE,125,5.6,6.0,51,0.00,,---,0.42,VWS V14.01,2013-05-01 15:02:00,
2013-05-01 11:07:00,75.1,53.5,30.12,SE,125,5.6,5.6,47,0.00,,---,0.00,VWS V14.01,2013-05-01 15:07:00,
2013-05-01 11:12:00,75.5,53.9,30.12,SE,125,5.6,5.6,47,0.00,,---,0.00,VWS V14.01,2013-05-01 15:12:00,
2013-05-01 11:17:00,76.0,55.0,30.12,SE,125,3.6,5.6,48,0.00,,---,0.00,VWS V14.01,2013-05-01 15:17:00,
2013-05-01 11:22:00,76.4,53.5,30.12,SE,125,3.6,3.6,45,0.00,,---,0.00,VWS V14.01,2013-05-01 15:22:00,
2013-05-01 11:27:00,77.5,53.9,30.12,WNW,282,3.6,3.6,44,0.00,,---,0.00,VWS V14.01,2013-05-01 15:27:00,
2013-05-01 11:32:00,78.0,55.0,30.12,WNW,282,3.6,3.6,45,0.00,,---,0.00,VWS V14.01,2013-05-01 15:32:00,
2013-05-01 11:37:00,77.8,55.4,30.12,WNW,282,3.6,3.6,46,0.00,,---,0.00,VWS V14.01,2013-05-01 15:37:00,
2013-05-01 11:42:00,78.2,53.9,30.12,WNW,282,3.6,3.6,43,0.00,,---,0.00,VWS V14.01,2013-05-01 15:42:00,
2013-05-01 11:47:00,78.7,53.7,30.12,WNW,282,3.6,3.6,42,0.00,,---,0.00,VWS V14.01,2013-05-01 15:47:00,
2013-05-01 11:52:00,79.6,55.8,30.12,WNW,282,3.6,3.6,44,0.00,,---,0.00,VWS V14.01,2013-05-01 15:52:00,
2013-05-01 11:57:00,79.3,54.2,30.12,SE,125,1.7,3.6,42,0.00,,---,0.00,VWS V14.01,2013-05-01 15:57:00,
2013-05-01 12:02:00,79.8,55.4,30.12,SE,125,1.7,1.7,43,0.00,,---,0.00,VWS V14.01,2013-05-01 16:02:00,
2013-05-01 12:07:00,80.4,55.2,30.12,SE,125,1.7,1.7,42,0.00,,---,0.00,VWS V14.01,2013-05-01 16:07:00,
2013-05-01 12:12:00,80.5,54.7,30.12,SE,125,1.7,1.7,41,0.00,,---,0.00,VWS V14.01,2013-05-01 16:12:00,
2013-05-01 12:17:00,80.9,55.0,30.12,SE,125,1.7,1.7,41,0.00,,---,0.00,VWS V14.01,2013-05-01 16:17:00,
2013-05-01 12:22:00,81.1,54.5,30.12,SW,215,5.3,5.3,40,0.00,,---,0.00,VWS V14.01,2013-05-01 16:22:00,
2013-05-01 12:27:00,81.1,55.2,30.12,SW,215,4.3,4.3,41,0.00,,---,0.00,VWS V14.01,2013-05-01 16:27:00,
2013-05-01 12:32:00,81.4,54.1,30.12,SE,125,5.0,5.0,39,0.00,,---,0.00,VWS V14.01,2013-05-01 16:32:00,
2013-05-01 12:37:00,82.5,55.1,30.12,SE,125,7.3,7.3,39,0.00,,---,0.00,VWS V14.01,2013-05-01 16:37:00,
2013-05-01 12:42:00,82.7,56.0,30.12,SE,125,7.3,7.3,40,0.00,,---,0.42,VWS V14.01,2013-05-01 16:42:00,
2013-05-01 12:47:00,82.5,55.1,30.12,SE,125,5.3,5.3,39,0.00,,---,0.00,VWS V14.01,2013-05-01 16:47:00,
2013-05-01 12:52:00,82.2,54.1,30.12,SE,125,5.3,5.3,38,0.00,,---,0.00,VWS V14.01,2013-05-01 16:52:00,
2013-05-01 12:57:00,82.9,55.4,30.12,SE,125,5.3,5.3,39,0.00,,---,0.00,VWS V14.01,2013-05-01 16:57:00,
2013-05-01 13:02:00,83.6,56.0,30.12,SE,125,5.3,5.3,39,0.00,,---,0.00,VWS V14.01,2013-05-01 17:02:00,
2013-05-01 13:07:00,84.3,56.7,30.12,SW,215,2.0,2.0,39,0.00,,---,0.00,VWS V14.01,2013-05-01 17:07:00,
2013-05-01 13:12:00,83.4,55.2,30.12,SW,215,2.0,2.0,38,0.00,,---,0.00,VWS V14.01,2013-05-01 17:12:00,
2013-05-01 13:17:00,83.6,55.3,30.12,SW,215,8.6,8.6,38,0.00,,---,0.00,VWS V14.01,2013-05-01 17:17:00,
2013-05-01 13:23:00,84.7,55.6,30.12,SE,125,8.3,8.6,37,0.00,,---,0.00,VWS V14.01,2013-05-01 17:23:00,
2013-05-01 13:28:00,84.9,56.5,30.12,SE,125,10.9,10.9,38,0.00,,---,0.00,VWS V14.01,2013-05-01 17:28:00,
2013-05-01 13:33:00,84.5,53.1,30.12,SE,125,10.9,14.6,34,0.00,,---,0.00,VWS V14.01,2013-05-01 17:33:00,
2013-05-01 13:38:00,84.1,55.1,30.12,SE,125,11.9,12.6,37,0.00,,---,0.00,VWS V14.01,2013-05-01 17:38:00,
2013-05-01 13:43:00,85.0,56.6,30.12,ESE,102,3.0,3.0,38,0.00,,---,0.00,VWS V14.01,2013-05-01 17:43:00,
2013-05-01 13:48:00,85.0,55.9,30.12,SE,125,8.9,9.6,37,0.00,,---,0.00,VWS V14.01,2013-05-01 17:48:00,
2013-05-01 13:53:00,85.4,55.4,30.12,East,80,7.3,8.9,36,0.00,,---,0.00,VWS V14.01,2013-05-01 17:53:00,
2013-05-01 13:58:00,85.4,54.7,30.12,SE,125,5.6,12.6,35,0.00,,---,0.00,VWS V14.01,2013-05-01 17:58:00,
2013-05-01 14:03:00,84.3,54.5,30.12,SE,125,9.6,9.6,36,0.00,,---,0.00,VWS V14.01,2013-05-01 18:03:00,
2013-05-01 14:08:00,84.7,54.0,30.12,SE,125,4.3,4.3,35,0.00,,---,0.00,VWS V14.01,2013-05-01 18:08:00,
2013-05-01 14:13:00,84.7,53.2,30.12,ESE,102,4.3,6.0,34,0.00,,---,0.00,VWS V14.01,2013-05-01 18:13:00,
2013-05-01 14:18:00,84.9,55.0,30.12,SW,215,5.6,12.6,36,0.00,,---,0.00,VWS V14.01,2013-05-01 18:18:00,
2013-05-01 14:23:00,84.7,54.0,30.12,ESE,102,9.6,9.6,35,0.00,,---,0.00,VWS V14.01,2013-05-01 18:23:00,
2013-05-01 14:28:00,84.5,53.9,30.12,SE,125,8.9,8.9,35,0.00,,---,0.00,VWS V14.01,2013-05-01 18:28:00,
2013-05-01 14:33:00,84.3,52.9,30.12,SE,125,5.0,5.3,34,0.00,,---,0.00,VWS V14.01,2013-05-01 18:33:00,
2013-05-01 14:38:00,84.9,53.4,30.12,SE,125,7.9,7.9,34,0.00,,---,0.00,VWS V14.01,2013-05-01 18:38:00,
2013-05-01 14:43:00,85.0,54.3,30.12,SE,125,12.9,12.9,35,0.00,,---,0.00,VWS V14.01,2013-05-01 18:43:00,
2013-05-01 14:48:00,84.7,54.8,30.12,ESE,102,6.3,6.3,36,0.00,,---,0.00,VWS V14.01,2013-05-01 18:48:00,
2013-05-01 14:53:00,84.7,53.2,30.12,East,80,3.0,3.0,34,0.00,,---,0.00,VWS V14.01,2013-05-01 18:53:00,
2013-05-01 14:58:00,84.5,53.9,30.12,NE,35,6.0,6.0,35,0.00,,---,0.00,VWS V14.01,2013-05-01 18:58:00,
2013-05-01 15:03:00,84.0,52.6,30.12,SE,125,5.3,8.6,34,0.00,,---,0.00,VWS V14.01,2013-05-01 19:03:00,
2013-05-01 15:08:00,84.3,53.7,30.12,SE,125,8.9,8.9,35,0.00,,---,0.00,VWS V14.01,2013-05-01 19:08:00,
2013-05-01 15:13:00,84.7,54.0,30.12,SE,125,8.9,11.6,35,0.00,,---,0.00,VWS V14.01,2013-05-01 19:13:00,
2013-05-01 15:18:00,84.3,53.7,30.12,East,80,9.6,9.6,35,0.00,,---,0.00,VWS V14.01,2013-05-01 19:18:00,
2013-05-01 15:23:00,84.1,52.8,30.12,East,80,7.0,8.9,34,0.00,,---,0.00,VWS V14.01,2013-05-01 19:23:00,
2013-05-01 15:28:00,84.1,52.8,30.12,West,260,10.9,10.9,34,0.00,,---,0.00,VWS V14.01,2013-05-01 19:28:00,
2013-05-01 15:33:00,84.7,53.2,30.12,SE,125,9.3,9.3,34,0.00,,---,0.00,VWS V14.01,2013-05-01 19:33:00,
2013-05-01 15:38:00,84.5,53.1,30.12,SE,125,6.3,6.3,34,0.00,,---,0.00,VWS V14.01,2013-05-01 19:38:00,
2013-05-01 15:44:00,84.1,52.0,30.12,ESE,102,8.3,14.2,33,0.00,,---,0.00,VWS V14.01,2013-05-01 19:44:00,
2013-05-01 15:49:00,84.0,52.6,30.12,SE,125,2.3,2.3,34,0.00,,---,0.00,VWS V14.01,2013-05-01 19:49:00,
2013-05-01 15:54:00,84.1,52.8,30.12,SE,125,7.3,9.3,34,0.00,,---,0.00,VWS V14.01,2013-05-01 19:54:00,
2013-05-01 15:59:00,83.8,52.5,30.12,NE,35,3.3,8.3,34,0.00,,---,0.00,VWS V14.01,2013-05-01 19:59:00,
2013-05-01 16:04:00,83.8,53.2,30.12,SE,125,18.9,18.9,35,0.00,,---,0.00,VWS V14.01,2013-05-01 20:04:00,
2013-05-01 16:09:00,84.0,52.6,30.12,SE,125,8.3,18.9,34,0.00,,---,0.00,VWS V14.01,2013-05-01 20:09:00,
2013-05-01 16:14:00,83.6,52.3,30.12,East,80,6.3,6.3,34,0.00,,---,0.00,VWS V14.01,2013-05-01 20:14:00,
2013-05-01 16:19:00,83.4,52.1,30.12,SE,125,6.3,10.9,34,0.00,,---,0.00,VWS V14.01,2013-05-01 20:19:00,
2013-05-01 16:24:00,82.7,51.5,30.12,SE,125,3.0,3.0,34,0.00,,---,0.00,VWS V14.01,2013-05-01 20:24:00,
2013-05-01 16:29:00,83.4,52.9,30.12,East,80,16.6,16.6,35,0.00,,---,0.00,VWS V14.01,2013-05-01 20:29:00,
2013-05-01 16:34:00,83.8,53.2,30.12,ESE,102,12.9,13.2,35,0.00,,---,0.00,VWS V14.01,2013-05-01 20:34:00,
2013-05-01 16:39:00,83.2,52.8,30.12,SE,125,13.2,13.2,35,0.00,,---,0.00,VWS V14.01,2013-05-01 20:39:00,
2013-05-01 16:44:00,83.4,52.9,30.12,SE,125,9.9,17.9,35,0.00,,---,0.00,VWS V14.01,2013-05-01 20:44:00,
2013-05-01 16:49:00,82.9,52.5,30.12,SE,125,11.9,11.9,35,0.00,,---,0.00,VWS V14.01,2013-05-01 20:49:00,
2013-05-01 16:54:00,82.5,52.1,30.12,ESE,102,14.9,14.9,35,0.00,,---,0.00,VWS V14.01,2013-05-01 20:54:00,
2013-05-01 16:59:00,82.3,52.0,30.12,ESE,102,14.9,14.9,35,0.00,,---,0.00,VWS V14.01,2013-05-01 20:59:00,
2013-05-01 17:04:00,82.0,51.7,30.12,SE,125,4.0,14.9,35,0.00,,---,0.00,VWS V14.01,2013-05-01 21:04:00,
2013-05-01 17:09:00,82.0,50.9,30.12,SE,125,9.9,9.9,34,0.00,,---,0.00,VWS V14.01,2013-05-01 21:09:00,
2013-05-01 17:14:00,82.2,51.0,30.12,SE,125,9.9,9.9,34,0.00,,---,0.00,VWS V14.01,2013-05-01 21:14:00,
2013-05-01 17:19:00,81.6,51.3,30.12,SE,125,15.2,15.2,35,0.00,,---,0.00,VWS V14.01,2013-05-01 21:19:00,
2013-05-01 17:24:00,81.6,51.3,30.12,SE,125,15.2,15.2,35,0.00,,---,0.00,VWS V14.01,2013-05-01 21:24:00,
2013-05-01 17:29:00,81.3,51.0,30.12,SE,125,15.2,15.2,35,0.00,,---,0.00,VWS V14.01,2013-05-01 21:29:00,
2013-05-01 17:34:00,81.4,51.2,30.12,SE,125,15.2,15.2,35,0.00,,---,0.00,VWS V14.01,2013-05-01 21:34:00,
2013-05-01 17:39:00,81.1,50.1,30.12,East,80,6.3,6.3,34,0.00,,---,0.00,VWS V14.01,2013-05-01 21:39:00,
2013-05-01 17:44:00,81.1,50.9,30.12,East,80,6.3,6.3,35,0.00,,---,0.00,VWS V14.01,2013-05-01 21:44:00,
2013-05-01 17:49:00,80.7,50.5,30.12,East,80,6.3,6.3,35,0.00,,---,0.00,VWS V14.01,2013-05-01 21:49:00,
2013-05-01 17:54:00,80.4,50.2,30.12,East,80,6.3,6.3,35,0.00,,---,0.00,VWS V14.01,2013-05-01 21:54:00,
2013-05-01 17:59:00,80.2,49.3,30.12,East,80,6.3,6.3,34,0.00,,---,0.00,VWS V14.01,2013-05-01 21:59:00,
2013-05-01 18:05:00,80.2,49.3,30.12,East,80,6.3,6.3,34,0.00,,---,0.00,VWS V14.01,2013-05-01 22:05:00,
2013-05-01 18:10:00,80.0,49.9,30.12,East,80,6.3,6.3,35,0.00,,---,0.00,VWS V14.01,2013-05-01 22:10:00,
2013-05-01 18:15:00,79.8,49.8,30.12,East,80,6.3,6.3,35,0.00,,---,0.00,VWS V14.01,2013-05-01 22:15:00,
2013-05-01 18:20:00,79.8,49.8,30.12,SE,125,7.3,7.3,35,0.00,,---,0.00,VWS V14.01,2013-05-01 22:20:00,
2013-05-01 18:25:00,79.8,50.5,30.12,SE,125,7.3,7.3,36,0.00,,---,0.00,VWS V14.01,2013-05-01 22:25:00,
2013-05-01 18:30:00,79.5,49.4,30.12,SE,125,7.3,7.3,35,0.00,,---,0.00,VWS V14.01,2013-05-01 22:30:00,
2013-05-01 18:35:00,79.1,49.9,30.12,SE,125,7.3,7.3,36,0.00,,---,0.00,VWS V14.01,2013-05-01 22:35:00,
2013-05-01 18:40:00,79.3,49.3,30.12,SE,125,7.3,7.3,35,0.00,,---,0.00,VWS V14.01,2013-05-01 22:40:00,
2013-05-01 18:45:00,79.3,50.0,30.12,SW,215,7.0,7.0,36,0.00,,---,0.00,VWS V14.01,2013-05-01 22:45:00,
2013-05-01 18:50:00,79.1,49.9,30.12,SW,215,7.0,7.0,36,0.00,,---,0.00,VWS V14.01,2013-05-01 22:50:00,
2013-05-01 18:55:00,78.7,49.6,30.12,SW,215,7.0,7.0,36,0.00,,---,0.00,VWS V14.01,2013-05-01 22:55:00,
2013-05-01 19:00:00,78.7,49.6,30.12,SW,215,7.0,7.0,36,0.00,,---,0.00,VWS V14.01,2013-05-01 23:00:00,
2013-05-01 19:05:00,78.7,49.6,30.12,SW,215,8.9,8.9,36,0.00,,---,0.00,VWS V14.01,2013-05-01 23:05:00,
2013-05-01 19:10:00,78.7,49.6,30.12,SE,125,8.9,9.3,36,0.00,,---,0.00,VWS V14.01,2013-05-01 23:10:00,
2013-05-01 19:15:00,78.4,49.2,30.12,SW,215,11.9,11.9,36,0.00,,---,0.00,VWS V14.01,2013-05-01 23:15:00,
2013-05-01 19:20:00,78.4,49.2,30.12,SW,215,11.9,11.9,36,0.00,,---,0.00,VWS V14.01,2013-05-01 23:20:00,
2013-05-01 19:25:00,78.0,48.9,30.12,SW,215,4.3,4.3,36,0.00,,---,0.00,VWS V14.01,2013-05-01 23:25:00,
2013-05-01 19:30:00,77.8,48.8,30.12,SW,215,4.6,4.6,36,0.00,,---,0.00,VWS V14.01,2013-05-01 23:30:00,
2013-05-01 19:35:00,78.0,48.9,30.12,SE,125,5.0,5.6,36,0.00,,---,0.00,VWS V14.01,2013-05-01 23:35:00,
2013-05-01 19:40:00,77.7,49.3,30.12,SE,125,5.0,5.0,37,0.00,,---,0.00,VWS V14.01,2013-05-01 23:40:00,
2013-05-01 19:45:00,77.3,49.0,30.12,SE,125,5.0,5.0,37,0.00,,---,0.00,VWS V14.01,2013-05-01 23:45:00,
2013-05-01 19:50:00,77.5,49.2,30.12,SE,125,5.0,5.0,37,0.00,,---,0.00,VWS V14.01,2013-05-01 23:50:00,
2013-05-01 19:55:00,77.3,49.0,30.12,SE,125,5.0,5.0,37,0.00,,---,0.00,VWS V14.01,2013-05-01 23:55:00,
2013-05-01 20:00:00,77.1,48.9,30.12,SW,215,5.0,5.0,37,0.00,,---,0.00,VWS V14.01,2013-05-02 00:00:00,
2013-05-01 20:05:00,76.9,48.7,30.12,SW,215,5.0,5.0,37,0.00,,---,0.00,VWS V14.01,2013-05-02 00:05:00,
2013-05-01 20:10:00,76.8,48.5,30.12,SW,215,5.3,5.3,37,0.00,,---,0.00,VWS V14.01,2013-05-02 00:10:00,
2013-05-01 20:15:00,76.4,48.2,30.12,SE,125,3.6,3.6,37,0.00,,---,0.00,VWS V14.01,2013-05-02 00:15:00,
2013-05-01 20:21:00,76.2,48.8,30.12,SE,125,6.3,6.3,38,0.00,,---,0.00,VWS V14.01,2013-05-02 00:21:00,
2013-05-01 20:26:00,75.9,48.5,30.12,SE,125,3.0,3.0,38,0.00,,---,0.00,VWS V14.01,2013-05-02 00:26:00,
2013-05-01 20:31:00,75.5,48.8,30.12,SE,125,3.0,3.0,39,0.00,,---,0.00,VWS V14.01,2013-05-02 00:31:00,
2013-05-01 20:36:00,75.0,48.3,30.12,SE,125,3.0,3.0,39,0.00,,---,0.00,VWS V14.01,2013-05-02 00:36:00,
2013-05-01 20:41:00,74.2,48.4,30.12,South,170,2.3,2.3,40,0.00,,---,0.00,VWS V14.01,2013-05-02 00:41:00,
2013-05-01 20:46:00,73.5,48.4,30.12,South,170,0.0,0.0,41,0.00,,---,0.00,VWS V14.01,2013-05-02 00:46:00,
2013-05-01 20:51:00,73.0,47.9,30.15,SE,125,0.0,3.0,41,0.00,,---,0.00,VWS V14.01,2013-05-02 00:51:00,
2013-05-01 20:56:00,72.3,47.9,30.15,SE,125,0.0,0.0,42,0.00,,---,0.00,VWS V14.01,2013-05-02 00:56:00,
2013-05-01 21:01:00,71.5,47.9,30.15,SE,125,0.0,0.0,43,0.00,,---,0.00,VWS V14.01,2013-05-02 01:01:00,
2013-05-01 21:06:00,71.2,47.6,30.15,SE,125,0.0,0.0,43,0.00,,---,0.00,VWS V14.01,2013-05-02 01:06:00,
2013-05-01 21:11:00,70.6,47.7,30.15,SE,125,0.0,0.0,44,0.00,,---,0.00,VWS V14.01,2013-05-02 01:11:00,
2013-05-01 21:16:00,70.3,48.0,30.15,SE,125,0.0,0.0,45,0.00,,---,0.00,VWS V14.01,2013-05-02 01:16:00,
2013-05-01 21:21:00,69.9,47.6,30.15,ESE,102,0.0,0.0,45,0.00,,---,0.00,VWS V14.01,2013-05-02 01:21:00,
2013-05-01 21:26:00,69.6,47.9,30.15,ESE,102,0.0,0.0,46,0.00,,---,0.00,VWS V14.01,2013-05-02 01:26:00,
2013-05-01 21:31:00,69.2,48.1,30.15,ESE,102,0.0,0.0,47,0.00,,---,0.00,VWS V14.01,2013-05-02 01:31:00,
2013-05-01 21:36:00,69.0,49.1,30.15,ESE,102,0.0,0.0,49,0.00,,---,0.00,VWS V14.01,2013-05-02 01:36:00,
2013-05-01 21:41:00,68.7,48.8,30.15,ESE,102,0.0,0.0,49,0.00,,---,0.00,VWS V14.01,2013-05-02 01:41:00,
2013-05-01 21:46:00,68.5,49.1,30.15,SE,125,5.0,5.0,50,0.00,,---,0.00,VWS V14.01,2013-05-02 01:46:00,
2013-05-01 21:51:00,68.1,48.8,30.15,ESE,102,1.3,3.6,50,0.00,,---,0.00,VWS V14.01,2013-05-02 01:51:00,
2013-05-01 21:56:00,67.9,49.2,30.15,ESE,102,4.3,4.3,51,0.00,,---,0.00,VWS V14.01,2013-05-02 01:56:00,
2013-05-01 22:01:00,67.8,49.0,30.15,SE,125,0.0,4.3,51,0.00,,---,0.00,VWS V14.01,2013-05-02 02:01:00,
2013-05-01 22:06:00,67.6,48.8,30.15,SE,125,0.0,0.0,51,0.00,,---,0.00,VWS V14.01,2013-05-02 02:06:00,
2013-05-01 22:11:00,67.2,49.5,30.15,SE,125,0.0,0.0,53,0.00,,---,0.00,VWS V14.01,2013-05-02 02:11:00,
2013-05-01 22:16:00,67.0,49.4,30.15,SE,125,0.0,0.0,53,0.00,,---,0.00,VWS V14.01,2013-05-02 02:16:00,
2013-05-01 22:21:00,66.7,49.5,30.15,SE,125,0.0,0.0,54,0.00,,---,0.00,VWS V14.01,2013-05-02 02:21:00,
2013-05-01 22:26:00,66.5,49.4,30.15,SE,125,4.3,4.3,54,0.00,,---,0.00,VWS V14.01,2013-05-02 02:26:00,
2013-05-01 22:31:00,66.3,49.7,30.15,SE,125,4.3,4.3,55,0.00,,---,0.00,VWS V14.01,2013-05-02 02:31:00,
2013-05-01 22:36:00,66.1,49.5,30.15,SE,125,2.3,2.3,55,0.00,,---,0.00,VWS V14.01,2013-05-02 02:36:00,
2013-05-01 22:42:00,66.1,50.0,30.15,ESE,102,0.0,0.0,56,0.00,,---,0.00,VWS V14.01,2013-05-02 02:42:00,
2013-05-01 22:47:00,65.8,49.7,30.15,ESE,102,0.0,0.0,56,0.00,,---,0.00,VWS V14.01,2013-05-02 02:47:00,
2013-05-01 22:52:00,65.6,49.5,30.15,ESE,102,2.3,2.3,56,0.00,,---,0.00,VWS V14.01,2013-05-02 02:52:00,
2013-05-01 22:57:00,65.4,50.3,30.15,SE,125,0.0,0.0,58,0.00,,---,0.00,VWS V14.01,2013-05-02 02:57:00,
2013-05-01 23:02:00,65.4,50.3,30.15,ESE,102,0.0,0.0,58,0.00,,---,0.00,VWS V14.01,2013-05-02 03:02:00,
2013-05-01 23:07:00,65.2,50.1,30.18,SE,125,0.0,0.0,58,0.00,,---,0.00,VWS V14.01,2013-05-02 03:07:00,
2013-05-01 23:12:00,65.1,50.4,30.18,ESE,102,0.0,0.0,59,0.00,,---,0.00,VWS V14.01,2013-05-02 03:12:00,
2013-05-01 23:17:00,64.7,50.5,30.18,SE,125,2.0,2.3,60,0.00,,---,0.00,VWS V14.01,2013-05-02 03:17:00,
2013-05-01 23:22:00,64.7,51.0,30.18,SE,125,3.6,3.6,61,0.00,,---,0.00,VWS V14.01,2013-05-02 03:22:00,
2013-05-01 23:27:00,64.5,50.8,30.18,East,80,0.0,0.0,61,0.00,,---,0.00,VWS V14.01,2013-05-02 03:27:00,
2013-05-01 23:32:00,64.3,50.6,30.18,East,80,0.0,0.0,61,0.00,,---,0.00,VWS V14.01,2013-05-02 03:32:00,
2013-05-01 23:37:00,64.2,50.9,30.15,East,80,0.0,0.0,62,0.00,,---,0.00,VWS V14.01,2013-05-02 03:37:00,
2013-05-01 23:42:00,64.0,50.7,30.15,East,80,0.0,0.0,62,0.00,,---,0.00,VWS V14.01,2013-05-02 03:42:00,
2013-05-01 23:47:00,64.0,50.7,30.15,East,80,0.0,0.0,62,0.00,,---,0.00,VWS V14.01,2013-05-02 03:47:00,
2013-05-01 23:52:00,63.8,50.5,30.15,East,80,0.0,0.0,62,0.00,,---,0.00,VWS V14.01,2013-05-02 03:52:00,
2013-05-01 23:57:00,63.6,50.8,30.15,East,80,0.0,0.0,63,0.00,,---,0.00,VWS V14.01,2013-05-02 03:57:00,